Flag for Cuba Weather past 2 weeks in Camagüey, Cuba

Now
79 °F

Passing clouds.


Feels Like: 82 °F
Forecast: 73 / 88 °F
Wind: 10 mph from East

Location: Camaguey Aeropuerto

Current Time: Jul 13, 2014 at 10:47:25 PM

Latest Report: Jul 13, 2014 at 9:51 PM


Visibility: 6 mi

Pressure: 30.09 "Hg

Humidity: 79%

Dew point: 72 °F

Location of CamagüeyLocation

Historic Weather in Camagüey — Graph

°F

Camagüey temperature yesterday

Maximum temperature yesterday: 91 °F (at 1:51 PM)
Minimum temperature yesterday: 75 °F (at 3:50 AM)
Average temperature yesterday: 82 °F

Past Weeks' High & Low Weather Summary

 TemperatureHumidityPressure
High93 °F (Jul 13, 2:50 PM)94% (Jun 29, 2:50 AM)30.15 "Hg (Jun 29, 2:50 AM)
Low72 °F (Jul 2, 7:52 PM)38% (Jul 2, 1:50 PM)29.95 "Hg (Jul 1, 3:50 PM)
Average82 °F73%30.07 "Hg
* Reported Jun 28 8:50 PM — Jul 13 8:50 PM, Camagüey, Weather by CustomWeather, © 2014

Note: Actual official high and low records may vary slightly from our data, if they occured in-between our weather recording intervals... More about our weather records

Advertising

Camagüey weather history for previous 24 hours

 ConditionsComfort  
Time TempWeatherWind HumidityBarometerVisibility
8:50 PM
Jul 13
81 °FPassing clouds.13 mph74%30.09 "Hg6 mi
7:58 PM82 °FPassing clouds.16 mph70%30.07 "Hg6 mi
6:50 PM88 °FPassing clouds.16 mph55%30.04 "Hg6 mi
5:50 PM91 °FPassing clouds.14 mph44%30.01 "Hg6 mi
4:50 PM91 °FScattered clouds.10 mph44%30.01 "Hg6 mi
3:50 PM93 °FPassing clouds.9 mph44%30.04 "Hg6 mi
2:50 PM93 °FPassing clouds.14 mph41%30.04 "Hg6 mi
1:50 PM91 °FPassing clouds.15 mph46%30.04 "Hg6 mi
12:50 PM91 °FPassing clouds.15 mph49%30.07 "Hg6 mi
11:50 AM88 °FScattered clouds.13 mph59%30.07 "Hg6 mi
10:50 AM86 °FScattered clouds.13 mph62%30.09 "Hg6 mi
9:50 AM84 °FScattered clouds.13 mph70%30.09 "Hg6 mi
8:50 AM81 °FPassing clouds.13 mph79%30.09 "Hg6 mi
7:50 AM77 °FPassing clouds.9 mph89%30.09 "Hg6 mi
6:50 AM75 °FPassing clouds.6 mph89%30.07 "Hg5 mi
5:50 AM75 °FPassing clouds.6 mph89%30.07 "Hg6 mi
4:50 AM75 °FClear.5 mph89%30.07 "Hg6 mi
3:50 AM75 °FClear.7 mph89%30.07 "Hg6 mi
2:50 AM75 °FPassing clouds.6 mph83%30.07 "Hg6 mi
1:50 AM75 °FPassing clouds.8 mph83%30.07 "Hg6 mi
12:50 AM75 °FPassing clouds.5 mph83%30.09 "Hg6 mi
11:50 PM
Jul 12
77 °FPassing clouds.6 mph74%30.09 "Hg6 mi
10:50 PM79 °FPassing clouds.7 mph74%30.09 "Hg6 mi
Weather by CustomWeather, © 2014

See weather overviewHow to use our weather pages